User: anonymous   Login
Location: Newark
(34.1333°N, 7.9667°W)
Time: 04:48:30
(UTC+00:00)
Language:

KAITUO 1B - Orbit

View from above orbital plane
View from above orbital plane
View from above satellite
View from above satellite

Ground track
Ground track

The orbit data is extracted from the following two-line orbital elements,

1 40912U 15049P   23158.74143826  .00035940  00000-0  80731-3 0  9992
2 40912  97.4166 176.3412 0011390 115.4947 244.7480 15.43208454428155
Epoch (UTC): 07 June 2023 17:47:40
Eccentricity: 0.0011390
inclination: 97.4166°
perigee height: 429 km
apogee height: 444 km
right ascension of ascending node: 176.3412°
argument of perigee: 115.4947°
revolutions per day: 15.43208454
mean anomaly at epoch: 244.7480°
orbit number at epoch: 42815

The dashed part of the orbit path shows where the satellite is in the earth's shadow,  

DLR